TimeEDT,TemperatureF,Dew PointF,Humidity,Sea Level PressureIn,VisibilityMPH,Wind Direction,Wind SpeedMPH,Gust SpeedMPH,PrecipitationIn,Events,Conditions,WindDirDegrees,DateUTC
12:00 AM,70.0,60.1,71,29.84,-9999.0,Calm,Calm,-,N/A,,Clear,0,2013-05-17 04:00:00
1:00 AM,64.0,57.9,80,29.86,-9999.0,Calm,Calm,-,N/A,,Clear,0,2013-05-17 05:00:00
2:00 AM,70.0,55.0,59,29.88,-9999.0,NW,4.6,-,N/A,,Clear,310,2013-05-17 06:00:00
3:00 AM,63.0,51.1,65,29.90,-9999.0,NW,3.5,-,N/A,,Clear,310,2013-05-17 07:00:00
4:00 AM,61.0,48.0,62,29.93,-9999.0,NW,3.5,-,N/A,,Clear,310,2013-05-17 08:00:00
5:00 AM,54.0,45.0,72,29.96,-9999.0,Calm,Calm,-,N/A,,Clear,0,2013-05-17 09:00:00
6:00 AM,59.0,44.1,58,29.99,-9999.0,NW,3.5,-,N/A,,Clear,310,2013-05-17 10:00:00
7:00 AM,62.1,44.1,52,30.01,-9999.0,NNW,4.6,-,N/A,,Clear,330,2013-05-17 11:00:00
8:00 AM,71.1,44.1,38,30.04,-9999.0,NW,5.8,-,N/A,,Clear,310,2013-05-17 12:00:00
8:09 AM,71.6,42.8,35,30.05,-9999.0,WNW,6.9,-,N/A,,Partly Cloudy,300,2013-05-17 12:09:00
8:43 AM,69.8,42.8,38,30.06,-9999.0,Variable,5.8,-,N/A,,Mostly Cloudy,0,2013-05-17 12:43:00
9:00 AM,70.0,42.1,36,30.06,-9999.0,Calm,Calm,-,N/A,,Mostly Cloudy,0,2013-05-17 13:00:00
9:07 AM,71.6,42.8,35,30.07,-9999.0,Variable,5.8,-,N/A,,Mostly Cloudy,0,2013-05-17 13:07:00
9:38 AM,73.4,41.0,31,30.07,-9999.0,NW,10.4,-,N/A,,Scattered Clouds,320,2013-05-17 13:38:00
10:00 AM,72.0,39.9,31,30.07,-9999.0,North,8.1,-,N/A,,Partly Cloudy,350,2013-05-17 14:00:00
11:00 AM,75.9,42.1,30,30.08,-9999.0,Variable,5.8,16.1,N/A,,Clear,0,2013-05-17 15:00:00
12:00 PM,78.1,39.9,25,30.08,-9999.0,NW,9.2,20.7,N/A,,Clear,310,2013-05-17 16:00:00
1:00 PM,81.0,41.0,24,30.08,-9999.0,NW,8.1,17.3,N/A,,Clear,310,2013-05-17 17:00:00
2:00 PM,81.0,41.0,24,30.08,-9999.0,WNW,11.5,17.3,N/A,,Clear,300,2013-05-17 18:00:00
3:00 PM,80.1,39.9,24,30.08,-9999.0,Variable,6.9,-,N/A,,Clear,0,2013-05-17 19:00:00
4:00 PM,82.0,39.9,22,30.08,-9999.0,Variable,6.9,-,N/A,,Clear,0,2013-05-17 20:00:00
5:00 PM,82.9,39.0,21,30.08,-9999.0,WNW,5.8,-,N/A,,Clear,300,2013-05-17 21:00:00
6:00 PM,82.0,37.9,21,30.10,-9999.0,WNW,5.8,-,N/A,,Clear,300,2013-05-17 22:00:00
7:00 PM,79.0,37.9,23,30.11,-9999.0,NW,3.5,-,N/A,,Clear,310,2013-05-17 23:00:00
8:00 PM,75.9,44.1,32,30.14,-9999.0,SSE,5.8,-,N/A,,Clear,160,2013-05-18 00:00:00
9:00 PM,68.0,46.0,45,30.16,-9999.0,Calm,Calm,-,N/A,,Clear,0,2013-05-18 01:00:00
10:00 PM,59.0,46.0,62,30.18,-9999.0,Calm,Calm,-,N/A,,Clear,0,2013-05-18 02:00:00
11:00 PM,55.9,45.0,67,30.18,-9999.0,Calm,Calm,-,N/A,,Clear,0,2013-05-18 03:00:00